CZ-6A DEB, 54575

Orbit data source: Space-Track

CZ-6A DEB, 54575 is space debris in SSO originally from a launch on Fri, 11 Nov 2022 UTC launched from the Taiyaun Space Center, China (TSC). Debris objects in space refer to the collection of defunct objects orbiting the Earth. Examples of debris include non-operational satellites, rocket bodies, and fragments generated from explosions, collisions, or faulty payload assembly.

Loading next visibility...
Identifier
54575, 2022-151MB
Orbit
SSO
Country
Flag of CNCN / PRC
Related business
Manufacturer
SAST
Mission
Spacecraft
Bus & Motor
Unknown
Mass
Unknown
Launch date (UTC)
2022-11-11 (4 years ago)
Launch vehicle
Unknown
Launch site
Taiyaun Space Center, China (TSC)
Object type
Payload
Rocket body
Debris
Shape & HBR
Unknown shape, 0.1 m
Radar Cross Section
Medium (>0.1 m² and <1 m²)

Expand to show TLE details & history
Last TLE update: 13 hours ago

TLE from 13 hours ago
0 CZ-6A DEB
1 54575U 22151MB  26235.70414639  .00004915  00000-0  79167-3 0  9991
2 54575  98.6231 314.2044 0120176  58.1844 303.0995 14.67247649199943
Epoch: 2026-08-23T16:53Z
TLE epoch observation values (Epoch: 2026-08-23T16:53:58.248Z)
Latitude
0.00005°
Longitude
88.71531°
Altitude
627.308 km
Speed
7.569 km/s
True Right ascension
20h 56m 49s
True Declination
0° 00' 00"
Sunlit
Object was in full shadow at epoch
Visualization orbit readout
Latitude
Unknown
Longitude
Unknown
Altitude
Unknown
Speed
Unknown
Apparent Right ascension
Unknown
Apparent Declination
Unknown
Sunlit
N/A
Visualization observer readout
Local Sidereal Time
21:12:28
Azimuth
Unknown
Elevation
Unknown
Doppler factor
Unknown
Orbital elements
Apogee altitude
751.624 km
Perigee altitude
582.294 km
Semi-major axis
7,045.096 km
Eccentricity
0.01202
Inclination
98.6231°
RAAN
314.2044°
Arg. of periapsis
58.1844°
True anomaly
301.9364°
Mean anomaly
303.0995°
Eccentric anomaly
302.5189°
Mean motion
3.67039 °/min
Orbital period
98.08 mins
BSTAR
0.00079167
Loading maneuver chart data...
Computing Atmospheric mass density...
Loading historical data...
Loading historical data...
Loading historical data...
Loading historical data...
Loading historical data...
Loading historical data...
Loading historical data...

Documentation

Showing up to 5 results
|